Weather History for Iowa Falls, IA

Change the Weather History Date:

Saturday, July 27, 2013

  Actual Average Record
Temperature  
Mean Temperature 59 °F -  
Max Temperature 68 °F 83 °F 100 °F (1955)
Min Temperature 50 °F 61 °F 46 °F (1971)
Degree Days  
Heating Degree Days 6    
Growing Degree Days 9 (Base 50)    
Moisture  
Dew Point 48 °F    
Average Humidity 70    
Maximum Humidity 94    
Minimum Humidity 42    
Precipitation  
Precipitation 0.00 in - - ()
Sea Level Pressure  
Sea Level Pressure 30.05 in    
Wind  
Wind Speed 7 mph (NW)    
Max Wind Speed 16 mph    
Max Gust Speed 26 mph    
Visibility 10 miles    
Events      
Averages and records for this station are not official NWS values.
T = Trace of Precipitation, MM = Missing Value Source: NWS Daily Summary

Daily Weather History Graph

Daily Weather History Graph

Search for Another Location

Airport:

Trip Planner

Search our weather history database for the weather conditions in past years. The results will help you decide how hot, cold, wet, or windy it might be!

Date:

Astronomy

Jul. 27, 2013 Rise Set
Actual Time 6:00 AM CDT 8:38 PM CDT
Civil Twilight 5:28 AM CDT 9:10 PM CDT
Nautical Twilight 4:47 AM CDT 9:50 PM CDT
Astronomical Twilight 4:01 AM CDT 10:36 PM CDT
Moon 11:16 PM CDT (7/27) 11:50 AM CDT (7/27)
Length of Visible Light 15h 42m
Length of Day
14h 37m
Waning Gibbous, 70% of the Moon is Illuminated
Jul 27
Waning Gibbous
Jul 29
Last Quarter
Aug 6
New
Aug 14
First Quarter
Aug 20
Full

Hourly Weather History & Observations

Time (CDT) Temp. Dew Point Humidity Pressure Visibility Wind Dir Wind Speed Gust Speed Precip Events Conditions
12:15 AM 57.2 °F 52.5 °F 84% 30.07 in 10.0 mi NW 5.8 mph - N/A   Scattered Clouds
12:35 AM 56.3 °F 52.3 °F 87% 30.06 in 10.0 mi NW 4.6 mph - N/A   Clear
12:55 AM 55.4 °F 52.0 °F 88% 30.06 in 10.0 mi NW 4.6 mph - N/A   Clear
1:15 AM 54.9 °F 52.0 °F 90% 30.07 in 10.0 mi WNW 4.6 mph - N/A   Clear
1:35 AM 54.9 °F 52.0 °F 90% 30.06 in 10.0 mi NW 5.8 mph - N/A   Clear
1:55 AM 54.9 °F 51.8 °F 89% 30.06 in 10.0 mi NW 5.8 mph - N/A   Clear
2:15 AM 54.5 °F 51.6 °F 90% 30.07 in 10.0 mi NW 5.8 mph - N/A   Clear
2:35 AM 53.8 °F 51.1 °F 91% 30.06 in 10.0 mi NW 4.6 mph - N/A   Clear
2:55 AM 53.6 °F 50.9 °F 91% 30.07 in 10.0 mi NW 4.6 mph - N/A   Clear
3:15 AM 53.1 °F 50.9 °F 92% 30.06 in 10.0 mi NW 4.6 mph - N/A   Clear
3:35 AM 52.7 °F 50.4 °F 92% 30.07 in 10.0 mi WNW 4.6 mph - N/A   Clear
3:55 AM 52.0 °F 50.0 °F 93% 30.06 in 10.0 mi NW 4.6 mph - N/A   Clear
4:15 AM 51.3 °F 49.5 °F 94% 30.06 in 10.0 mi WNW 4.6 mph - N/A   Clear
4:35 AM 51.1 °F 49.3 °F 94% 30.06 in 10.0 mi WNW 3.5 mph - N/A   Clear
4:55 AM 50.9 °F 49.3 °F 94% 30.06 in 10.0 mi NW 5.8 mph - N/A   Clear
5:15 AM 50.9 °F 49.3 °F 94% 30.07 in 10.0 mi NW 4.6 mph - N/A   Clear
5:35 AM 50.5 °F 48.7 °F 94% 30.07 in 10.0 mi NW 4.6 mph - N/A   Clear
5:55 AM 50.2 °F 48.4 °F 94% 30.07 in 10.0 mi NW 5.8 mph - N/A   Clear
6:15 AM 50.7 °F 48.2 °F 91% 30.08 in 10.0 mi NW 6.9 mph - N/A   Clear
6:35 AM 50.7 °F 48.2 °F 91% 30.08 in 10.0 mi NNW 5.8 mph - N/A   Clear
6:55 AM 51.1 °F 48.2 °F 90% 30.08 in 10.0 mi NNW 4.6 mph - N/A   Clear
7:15 AM 51.8 °F 48.9 °F 90% 30.08 in 10.0 mi North 5.8 mph - N/A   Clear
7:35 AM 52.7 °F 49.3 °F 88% 30.08 in 10.0 mi North 4.6 mph - N/A   Clear
7:55 AM 53.4 °F 49.5 °F 86% 30.08 in 10.0 mi NNW 6.9 mph - N/A   Clear
8:15 AM 54.5 °F 50.2 °F 85% 30.09 in 10.0 mi NNW 6.9 mph - N/A   Clear
8:35 AM 54.5 °F 49.5 °F 83% 30.09 in 10.0 mi NNW 9.2 mph - N/A   Scattered Clouds
9:08 AM 55.4 °F 48.2 °F 77% 30.09 in 10.0 mi NNW 6.9 mph - N/A   Scattered Clouds
9:15 AM 56.5 °F 49.1 °F 76% 30.09 in 10.0 mi NW 5.8 mph - N/A   Scattered Clouds
9:35 AM 56.7 °F 48.6 °F 74% 30.09 in 10.0 mi NNW 8.1 mph 17.3 mph N/A   Mostly Cloudy
9:55 AM 58.8 °F 48.7 °F 69% 30.09 in 10.0 mi NW 6.9 mph 16.1 mph N/A   Mostly Cloudy
10:15 AM 59.9 °F 47.5 °F 64% 30.08 in 10.0 mi NNW 9.2 mph 16.1 mph N/A   Mostly Cloudy
10:35 AM 59.9 °F 45.1 °F 58% 30.08 in 10.0 mi NNW 12.7 mph 23.0 mph N/A   Mostly Cloudy
10:55 AM 60.1 °F 46.0 °F 60% 30.08 in 10.0 mi NNW 10.4 mph 19.6 mph N/A   Mostly Cloudy
11:15 AM 60.1 °F 43.2 °F 54% 30.08 in 10.0 mi NW 16.1 mph 26.5 mph N/A   Mostly Cloudy
11:35 AM 61.0 °F 44.6 °F 55% 30.08 in 10.0 mi NW 13.8 mph - N/A   Mostly Cloudy
11:55 AM 59.7 °F 43.7 °F 55% 30.07 in 10.0 mi NW 15.0 mph 23.0 mph N/A   Overcast
12:15 PM 60.6 °F 44.8 °F 56% 30.07 in 10.0 mi NW 10.4 mph 19.6 mph N/A   Overcast
12:35 PM 60.1 °F 43.0 °F 53% 30.07 in 10.0 mi NW 12.7 mph 23.0 mph N/A   Overcast
12:55 PM 60.4 °F 44.1 °F 55% 30.06 in 10.0 mi NW 15.0 mph 19.6 mph N/A   Overcast
1:15 PM 60.6 °F 44.4 °F 55% 30.07 in 10.0 mi NNW 13.8 mph 19.6 mph N/A   Overcast
1:35 PM 61.2 °F 45.1 °F 56% 30.07 in 10.0 mi NW 15.0 mph 20.7 mph N/A   Overcast
1:55 PM 62.8 °F 45.0 °F 52% 30.06 in 10.0 mi NNW 11.5 mph 19.6 mph N/A   Mostly Cloudy
2:15 PM 63.0 °F 44.4 °F 51% 30.06 in 10.0 mi NNW 12.7 mph 17.3 mph N/A   Mostly Cloudy
2:35 PM 63.5 °F 44.8 °F 51% 30.05 in 10.0 mi NW 10.4 mph 17.3 mph N/A   Scattered Clouds
2:55 PM 64.4 °F 43.9 °F 47% 30.04 in 10.0 mi WNW 13.8 mph 18.4 mph N/A   Mostly Cloudy
3:15 PM 63.0 °F 43.2 °F 48% 30.04 in 10.0 mi NNW 10.4 mph - N/A   Mostly Cloudy
3:35 PM 64.4 °F 44.1 °F 48% 30.04 in 10.0 mi NW 9.2 mph - N/A   Mostly Cloudy
3:55 PM 63.9 °F 44.4 °F 49% 30.03 in 10.0 mi NW 8.1 mph - N/A   Overcast
4:15 PM 67.1 °F 43.7 °F 43% 30.03 in 10.0 mi WNW 15.0 mph - N/A   Mostly Cloudy
4:35 PM 64.9 °F 44.2 °F 47% 30.03 in 10.0 mi NW 10.4 mph 19.6 mph N/A   Overcast
4:55 PM 68.0 °F 44.8 °F 43% 30.02 in 10.0 mi WNW 13.8 mph 18.4 mph N/A   Overcast
5:15 PM 64.6 °F 44.8 °F 49% 30.02 in 10.0 mi NW 9.2 mph - N/A   Overcast
5:35 PM 65.1 °F 43.5 °F 45% 30.01 in 10.0 mi NW 8.1 mph - N/A   Scattered Clouds
5:55 PM 66.2 °F 44.2 °F 45% 30.01 in 10.0 mi NW 13.8 mph 18.4 mph N/A   Scattered Clouds
6:15 PM 66.6 °F 42.4 °F 42% 30.01 in 10.0 mi WNW 12.7 mph - N/A   Clear
6:35 PM 66.4 °F 43.7 °F 44% 30.00 in 10.0 mi WNW 12.7 mph 17.3 mph N/A   Clear
6:55 PM 66.2 °F 43.0 °F 43% 30.00 in 10.0 mi WNW 11.5 mph 18.4 mph N/A   Clear
7:15 PM 65.7 °F 43.3 °F 44% 30.00 in 10.0 mi NW 10.4 mph - N/A   Scattered Clouds
7:35 PM 65.7 °F 45.1 °F 47% 30.00 in 10.0 mi NW 6.9 mph - N/A   Mostly Cloudy
7:55 PM 64.9 °F 44.8 °F 48% 30.00 in 10.0 mi WNW 6.9 mph - N/A   Mostly Cloudy
8:15 PM 62.8 °F 48.2 °F 59% 29.99 in 10.0 mi Calm Calm - N/A   Mostly Cloudy
8:35 PM 60.6 °F 50.5 °F 69% 29.99 in 10.0 mi NNE 5.8 mph - N/A   Scattered Clouds
8:55 PM 59.0 °F 50.9 °F 74% 30.00 in 10.0 mi ENE 3.5 mph - N/A   Scattered Clouds
9:15 PM 58.6 °F 51.4 °F 77% 30.00 in 10.0 mi Calm Calm - N/A   Overcast
9:35 PM 57.7 °F 53.2 °F 85% 30.00 in 10.0 mi Calm Calm - N/A   Overcast
9:55 PM 57.2 °F 52.5 °F 84% 30.00 in 10.0 mi Calm Calm - N/A   Overcast
10:15 PM 57.2 °F 52.7 °F 85% 30.00 in 10.0 mi South 4.6 mph - N/A   Overcast
10:35 PM 57.4 °F 52.0 °F 82% 30.01 in 10.0 mi SSW 4.6 mph - N/A   Overcast
10:55 PM 57.6 °F 51.8 °F 81% 30.01 in 10.0 mi WSW 4.6 mph - N/A   Overcast
11:15 PM 58.3 °F 50.2 °F 74% 30.00 in 10.0 mi West 5.8 mph - N/A   Overcast
11:35 PM 57.9 °F 50.5 °F 76% 30.00 in 10.0 mi West 5.8 mph - N/A   Overcast
11:55 PM 58.1 °F 49.8 °F 74% 30.00 in 10.0 mi West 6.9 mph - N/A   Overcast